2001 RT17 

Epoch 2001 Sep. 28.0 TT = JDT 2452180.5                 Nakano

M  99.53679              (2000.0)            P               Q

n   0.68703375     Peri.  199.44300     -0.98258994     +0.17583744

a   1.2719909      Node   350.09246     -0.08695166     -0.72056538

e   0.7950388      Incl.   20.40363     -0.16418412     -0.67072105

P   1.43           H   17.5           G   0.15           U   *

Residuals in seconds of arc 

010911 704  0.3-  0.4-    010912 704  0.9+  0.4-    010917 402  0.2-  0.8-  

010911 704  0.1-  0.5+    010912 704  0.7-  1.1+    010919 704  0.2-  0.6+  

010911 704  0.2+  0.1-    010912 704  0.5+  0.1-    010919 704  0.4+  1.1+  

010911 704  0.0   0.3-    010912 704  0.2+  0.0     010919 704  0.6+  1.1+  

010911 704  0.1+  0.7+    010912 704  0.1+  0.3+    010919 704  0.2+  0.4+  

010912 704  0.2-  0.1-    010913 658  0.6-  0.1-    010919 704  0.3+  0.2+  

010912 704  0.4+  0.2-    010913 658  0.2-  0.5+    010920 360  0.1+  0.7-  

010912 704  0.3-  0.4-    010913 658  0.6+  0.3-    010920 360  0.1-  0.3-  

010912 704  0.4-  0.7-    010917 402  0.6-  0.7-    010920 360  0.6-  0.6-  

010912 704  0.1-  0.0     010917 402  0.2+  0.4-                            

  

NAKANO

         **** Don't distribute anyone except personal use only ****

                (C) Copyright 2001 OAA/ComputingSection

write mail from CFAD0::NAKANO on 2001-09-22 23:09:19(JST).



2001 RT17 

Epoch 2001 Sep. 8.0 TT = JDT 2452160.5                  Nakano

M  88.50134              (2000.0)            P               Q

n   0.70360850     Peri.  199.89094     -0.98170729     +0.18214984

a   1.2519356      Node   350.10140     -0.09913844     -0.73756905

e   0.7753772      Incl.   18.81006     -0.16254956     -0.65024098

P   1.40           H   17.7           G   0.15           U   *

  

NAKANO

         **** Don't distribute anyone except personal use only ****

                (C) Copyright 2001 OAA/ComputingSection

write mail from CFAD0::NAKANO on 2001-09-19 04:21:40(JST).

 



–ß‚è‚Ü‚·B